FENGYUN 1C DEB, 38124

Orbit data source: Space-Track

FENGYUN 1C DEB, 38124 is space debris in SSO originally from a launch on Mon, 10 May 1999 UTC launched from the Taiyaun Space Center, China (TSC). Fengyun 1C debris stems from the Chinese weather satellite Fengyun-1C, which was intentionally destroyed by a Chinese anti-satellite missile in 2007. This event dramatically increased the amount of space debris, with thousands of trackable fragments posing hazards to satellites and human spaceflight. The Fengyun 1C debris cloud has become a focal point in discussions about space sustainability and the need for international regulations to prevent the creation of new debris.

Loading next visibility...
Identifier
38124, 1999-025EPV
Orbit
SSO
Country
Flag of CNCN / PRC
Related business
Manufacturer
Unknown
Mission
Spacecraft
Bus & Motor
Unknown
Mass
Unknown
Launch date (UTC)
1999-05-10 (27 years ago)
Launch vehicle
Unknown
Launch site
Taiyaun Space Center, China (TSC)
Object type
Payload
Rocket body
Debris
Shape & HBR
Unknown shape, 0.1 m
Radar Cross Section
Small (<0.1 m²)

Expand to show TLE details & history
Last TLE update: 20 hours ago

TLE from 20 hours ago
0 FENGYUN 1C DEB
1 38124U 99025EPV 26256.50526712  .00000103  00000-0  16865-3 0  9995
2 38124  97.8120 152.4469 0355600 314.6753  42.5904 13.41050941582643
Epoch: 2026-09-13T12:07Z
TLE epoch observation values (Epoch: 2026-09-13T12:07:35.079Z)
Latitude
-0.00001°
Longitude
-21.94822°
Altitude
916.764 km
Speed
7.487 km/s
True Right ascension
10h 09m 47s
True Declination
0° 00' 00"
Sunlit
Object was in daylight at epoch
Visualization orbit readout
Latitude
Unknown
Longitude
Unknown
Altitude
Unknown
Speed
Unknown
Apparent Right ascension
Unknown
Apparent Declination
Unknown
Sunlit
N/A
Visualization observer readout
Local Sidereal Time
00:22:29
Azimuth
Unknown
Elevation
Unknown
Doppler factor
Unknown
Orbital elements
Apogee altitude
1,368.602 km
Perigee altitude
836.573 km
Semi-major axis
7,480.725 km
Eccentricity
0.03556
Inclination
97.812°
RAAN
152.4469°
Arg. of periapsis
314.6753°
True anomaly
45.44007°
Mean anomaly
42.5904°
Eccentric anomaly
44.00587°
Mean motion
3.3545 °/min
Orbital period
107.32 mins
BSTAR
0.00016865
Loading maneuver chart data...
Computing Atmospheric mass density...

Documentation

Showing up to 5 results
|